Fort Stockton, TX

5:56 AM CST on February 22, 2017 (GMT -0600)
Fort Stockton-Pecos County

Weather History for KFST - May, 2013

Change the Weather History Date:

Thursday, May 9, 2013

  Actual Average Record
Temperature  
Mean Temperature 76 °F -  
Max Temperature 89 °F 88 °F 99 °F (2011)
Min Temperature 64 °F 59 °F 52 °F (1997)
Cooling Degree Days 12    
Growing Degree Days 26 (Base 50)    
Moisture  
Dew Point 35 °F    
Average Humidity 30    
Maximum Humidity 73    
Minimum Humidity 8    
Precipitation  
Precipitation 0.00 in - - ()
Sea Level Pressure  
Sea Level Pressure 29.79 in    
Wind  
Wind Speed 7 mph (WSW)    
Max Wind Speed 18 mph    
Max Gust Speed 48 mph    
Visibility 10 miles    
Events Rain    
Averages and records for this station are not official NWS values.
T = Trace of Precipitation, MM = Missing Value Source: NWS Daily Summary

Daily Weather History Graph

Daily Weather History Graph

Search for Another Location

Airport or City:

Trip Planner

Search our weather history database for the weather conditions in past years. The results will help you decide how hot, cold, wet, or windy it might be!

Date:

Astronomy

May. 09, 2013 Rise Set
Actual Time 7:00 AM CDT 8:36 PM CDT
Civil Twilight 6:34 AM CDT 9:02 PM CDT
Nautical Twilight 6:03 AM CDT 9:33 PM CDT
Astronomical Twilight 5:30 AM CDT 10:06 PM CDT
Moon 6:44 AM CDT (5/9) 8:33 PM CDT (5/9)
Length of Visible Light 14h 27m
Length of Day
13h 35m
Waning Crescent, 0% of the Moon is Illuminated
May 9
Waning Crescent
May 9
New
May 17
First Quarter
May 24
Full
May 31
Last Quarter

Hourly Weather History & Observations

Time (CDT) Temp. Dew Point Humidity Pressure Visibility Wind Dir Wind Speed Gust Speed Precip Events Conditions
12:53 AM 73.0 °F 57.0 °F 57% 29.81 in 10.0 mi Calm Calm - N/A   Clear
1:53 AM 72.0 °F 57.0 °F 59% 29.80 in 10.0 mi SSE 4.6 mph - N/A   Clear
2:53 AM 69.1 °F 55.9 °F 63% 29.78 in 10.0 mi SSE 5.8 mph - N/A   Clear
3:53 AM 68.0 °F 55.9 °F 65% 29.77 in 10.0 mi South 6.9 mph - N/A   Clear
4:53 AM 66.9 °F 55.9 °F 68% 29.78 in 10.0 mi South 9.2 mph - N/A   Clear
5:53 AM 64.9 °F 55.9 °F 73% 29.78 in 10.0 mi SSW 9.2 mph - N/A   Clear
6:53 AM 64.9 °F 46.9 °F 52% 29.80 in 10.0 mi South 10.4 mph - N/A   Clear
7:53 AM 66.0 °F 39.9 °F 38% 29.82 in 10.0 mi South 8.1 mph - N/A   Clear
8:53 AM 72.0 °F 30.9 °F 22% 29.86 in 10.0 mi West 15.0 mph 27.6 mph N/A   Mostly Cloudy
9:53 AM 78.1 °F 32.0 °F 19% 29.86 in 10.0 mi WSW 18.4 mph 27.6 mph N/A   Mostly Cloudy
10:53 AM 79.0 °F 28.9 °F 16% 29.85 in 10.0 mi Calm Calm - N/A   Partly Cloudy
11:53 AM 82.0 °F 28.0 °F 14% 29.84 in 10.0 mi WSW 8.1 mph 16.1 mph N/A   Clear
12:53 PM 84.0 °F 26.1 °F 12% 29.83 in 10.0 mi NW 9.2 mph 19.6 mph N/A   Clear
1:53 PM 87.1 °F 24.1 °F 10% 29.80 in 10.0 mi West 15.0 mph 21.9 mph N/A   Clear
2:53 PM 88.0 °F 25.0 °F 10% 29.78 in 10.0 mi SSW 11.5 mph 19.6 mph N/A   Clear
3:53 PM 84.9 °F 24.1 °F 11% 29.75 in 10.0 mi Variable 6.9 mph - N/A   Clear
4:53 PM 89.1 °F 25.0 °F 10% 29.73 in 10.0 mi West 13.8 mph 24.2 mph N/A   Clear
5:53 PM 89.1 °F 21.9 °F 9% 29.72 in 10.0 mi WNW 13.8 mph 21.9 mph N/A   Clear
6:53 PM 88.0 °F 21.0 °F 9% 29.72 in 10.0 mi NW 9.2 mph - N/A   Clear
7:53 PM 84.9 °F 18.0 °F 8% 29.73 in 10.0 mi WNW 13.8 mph 20.7 mph N/A   Clear
9:53 PM 78.1 °F 21.0 °F 12% 29.77 in 10.0 mi West 5.8 mph - N/A   Clear
10:53 PM 80.1 °F 28.9 °F 15% 29.81 in 8.0 mi WNW 16.1 mph 48.3 mph 0.00 in Rain Light Rain